User: anonymous
Location: Fort Wayne
(41.1310°N, 85.1290°W)
Time: 00:30:43
(UTC-04:00)
Language:

OAO 2 Rocket - Orbit

View from above orbital plane
View from above orbital plane
View from above satellite
View from above satellite

Ground track
Ground track

The orbit data is extracted from the following two-line orbital elements,

1 03598U 68110B   14213.11848641  .00000449  00000-0  10895-3 0  6737
2 03598 034.9937 150.4648 0049372 343.9801 135.2674 14.53646477413400
Epoch (UTC): 01 August 2014 02:50:37
Eccentricity: 0.0049372
inclination: 34.9937°
perigee height: 679 km
apogee height: 749 km
right ascension of ascending node: 150.4648°
argument of perigee: 343.9801°
revolutions per day: 14.53646477
mean anomaly at epoch: 135.2674°
orbit number at epoch: 41340

The dashed part of the orbit path shows where the satellite is in the earth's shadow,  

DLR